Wind_Speed
6 5 6 6 7 7 7 7 7 7 6 7 7 7 8 7 7 6 5 5 5 5 5 5 6 6 6 6 6 6 6 7 6 7 7 8 8 8 8 8 8 9 9
7 6 7 8 8 8 7 7 7 7 7 7 7 7 8 8 7 6 6 6 6 6 6 6 6 6 6 6 6 7 8 7 7 7 8 8 9 9 9 9 9 9 9
8 8 8 9 9 9 9 8 8 8 8 7 8 8 8 8 8 7 7 7 7 6 7 7 7 7 7 7 8 8 8 9 9 9 9 9 9 9 10 10 10 10 9
10 10 10 11 11 10 9 10 9 9 9 8 8 8 8 9 8 7 7 7 8 7 8 8 8 8 8 9 9 9 9 10 10 11 11 11 11 11 11 10 11 11 10
12 11 11 11 11 11 10 11 10 10 9 9 8 9 9 9 9 8 8 8 8 9 9 9 9 10 10 10 10 10 11 11 11 11 12 11 12 12 12 11 12 12 11
12 12 12 11 12 12 12 12 11 11 11 10 10 10 10 10 10 9 9 9 9 10 10 10 10 10 10 11 11 12 12 12 12 12 12 12 12 12 12 12 13 13 12
12 12 13 12 11 12 12 12 12 11 11 11 11 11 11 11 10 10 10 10 10 10 10 10 10 11 11 11 12 13 13 14 14 14 14 14 13 13 13 13 14 14 13
13 13 13 12 12 12 13 12 12 12 11 12 12 12 11 11 10 11 11 11 12 12 13 13 12 13 14 14 14 14 15 15 15 15 15 15 15 14 14 14 14 14 14
14 14 13 14 13 13 13 13 12 12 12 12 12 12 12 12 12 12 13 14 14 15 15 15 15 15 16 16 16 16 17 16 16 17 16 16 16 16 16 16 15 15 14
15 15 15 15 15 14 14 14 13 13 13 13 12 12 12 13 13 13 14 15 15 16 17 16 17 17 17 17 17 17 17 17 17 18 18 17 16 17 17 16 17 16 16
15 15 16 15 15 15 15 14 14 15 15 14 13 13 13 14 14 15 15 16 16 16 17 18 17 18 18 18 18 18 18 18 18 18 18 18 18 18 18 17 17 17 17
15 15 16 16 15 15 15 15 16 16 15 15 15 14 14 15 15 16 16 16 17 18 18 18 18 18 18 18 18 18 19 19 19 19 19 18 18 18 18 18 18 18 18
16 16 16 16 16 16 16 16 17 16 16 15 15 15 15 15 15 16 16 17 17 18 19 18 18 18 19 19 19 19 20 20 20 19 19 19 18 19 19 19 19 19 19
17 16 16 16 17 17 16 16 16 17 17 17 16 16 15 15 15 16 16 17 18 18 18 17 18 18 19 19 19 20 20 21 20 20 19 19 19 19 19 19 19 19 19
18 17 16 17 18 18 18 17 17 17 18 18 17 17 16 16 16 16 16 17 17 17 17 17 17 18 18 19 19 19 19 19 19 19 19 19 20 20 19 19 19 20 20
20 19 18 18 19 19 19 18 17 17 18 18 18 18 18 18 18 17 17 18 18 18 18 18 18 19 20 20 19 19 19 19 19 19 19 20 20 20 19 20 20 20 20
22 21 20 20 20 20 20 19 19 19 19 20 20 19 19 19 19 19 19 19 19 18 18 19 19 19 19 19 19 19 19 20 20 20 20 21 21 21 20 20 21 22 21
22 23 23 22 21 20 21 21 21 21 21 22 21 21 21 20 21 22 21 20 20 20 20 20 20 20 20 20 20 20 20 21 21 21 21 21 22 22 22 21 22 22 22
23 24 24 23 22 21 22 22 22 22 23 23 23 23 23 22 23 23 23 23 22 22 22 22 22 22 22 22 22 21 22 22 22 22 22 22 23 23 23 22 22 22 22
26 26 25 23 23 22 22 22 23 23 24 24 24 24 24 24 24 24 24 23 23 23 23 23 23 23 24 23 23 23 24 24 24 24 24 23 23 23 23 23 23 23 23
27 27 27 25 24 24 24 24 24 24 24 25 25 25 25 25 25 25 25 24 24 24 24 24 24 24 24 24 24 24 25 25 25 25 24 24 24 24 23 23 23 23 23
27 27 27 26 26 25 25 25 25 26 27 26 26 25 25 26 26 26 25 25 25 25 25 25 25 25 25 25 25 25 26 25 25 26 26 25 25 25 24 25 25 24 24
29 29 28 28 28 27 27 26 26 27 28 27 27 26 27 27 27 27 27 27 27 27 27 27 26 26 26 26 26 26 26 25 26 26 26 27 27 27 26 27 27 26 26
30 30 30 29 29 29 29 28 27 28 28 28 28 28 28 29 29 29 29 29 28 28 27 27 27 27 26 27 27 27 27 27 28 28 27 28 28 28 27 27 28 27 27
31 31 31 30 30 30 30 30 29 28 29 29 29 30 30 30 29 30 29 29 29 29 28 29 28 28 28 28 29 29 29 29 29 30 30 30 29 29 28 28 29 29 28
32 30 31 31 31 31 30 30 30 29 29 29 29 30 30 30 30 29 29 29 30 30 30 30 30 29 30 30 30 30 30 30 31 31 30 29 29 29 29 29 29 29 30
Wind_Direction
289 299 306 316 322 321 318 320 318 319 319 323 329 330 328 325 320 307 303 301 296 293 298 301 301 302 304 306 308 312 313 312 308 309 310 310 309 310 306 303 303 302 302
280 289 298 302 308 310 313 315 316 316 317 319 323 326 331 329 318 307 299 297 293 288 290 292 295 296 295 298 306 309 309 307 307 305 305 307 308 303 303 305 304 305 301
275 285 290 295 297 301 303 304 306 309 311 311 315 319 322 322 315 304 299 298 292 289 289 287 290 290 290 292 298 302 301 302 301 302 305 305 305 302 302 303 304 306 302
279 288 289 292 293 294 297 298 296 297 302 307 311 310 310 311 309 300 294 294 289 288 289 287 285 286 288 289 293 298 301 300 298 299 301 302 302 303 302 300 301 302 300
282 283 285 290 286 286 290 293 291 291 294 299 301 301 302 302 298 296 292 293 292 288 288 283 282 284 287 289 292 298 301 301 299 299 298 298 299 303 302 300 299 299 295
279 282 279 280 282 285 287 288 287 287 290 294 295 296 296 294 290 288 287 290 291 288 284 283 284 284 287 289 293 297 301 301 299 300 298 296 296 300 299 298 298 298 294
276 283 280 279 285 283 284 284 281 282 287 290 291 292 290 289 286 282 282 284 287 288 286 288 289 289 289 291 295 296 296 298 297 297 297 295 295 294 297 296 296 296 293
276 280 285 289 286 283 283 283 281 282 284 289 289 289 286 284 283 281 280 281 282 286 286 287 287 287 289 290 292 294 295 296 295 294 293 291 291 293 295 297 296 294 291
273 276 283 288 288 286 287 286 285 286 287 288 287 289 284 280 281 282 281 280 279 281 285 285 286 285 286 289 290 294 294 294 292 291 291 290 288 288 289 292 294 292 288
269 271 277 285 289 286 288 287 284 285 287 289 287 286 284 280 281 281 281 280 281 283 285 285 287 287 287 288 289 289 291 293 293 289 287 287 288 288 288 289 289 290 287
264 269 272 277 281 283 285 285 284 284 283 284 283 284 282 280 281 281 284 285 287 290 287 292 291 289 287 288 288 289 290 290 292 289 285 284 285 286 287 288 285 285 287
267 270 275 277 280 281 280 282 284 283 281 281 281 280 281 281 282 281 284 284 287 289 291 291 291 288 287 287 286 288 289 289 290 288 286 285 283 285 286 287 285 282 282
272 274 277 279 281 279 277 279 282 281 280 281 286 282 281 283 283 283 283 285 287 289 290 290 288 287 287 288 287 288 287 287 287 287 284 285 283 283 284 284 284 282 280
271 275 278 279 280 279 278 277 278 278 280 282 283 285 283 282 282 283 284 286 288 289 289 289 289 288 288 289 288 287 287 287 286 286 285 284 284 285 284 283 282 282 280
268 271 275 279 280 280 279 279 278 277 278 280 281 282 283 283 284 286 289 291 292 290 291 292 292 293 292 292 293 291 290 289 288 286 284 283 282 283 283 282 282 282 282
272 271 272 276 279 280 280 281 278 277 276 277 279 281 283 285 286 286 290 293 293 292 291 292 292 293 292 292 294 294 292 291 290 288 286 285 282 281 282 281 280 282 283
271 273 274 277 279 279 279 279 278 276 276 277 278 279 281 285 286 286 288 290 292 291 289 291 292 293 292 292 293 294 292 291 290 289 287 286 284 283 283 283 281 280 280
271 274 273 274 275 276 278 279 278 276 276 277 277 279 282 283 284 285 285 288 289 290 289 291 292 292 292 291 290 291 290 289 289 290 288 287 285 283 282 283 282 281 280
272 274 273 271 272 275 277 279 278 276 275 275 275 277 279 281 282 283 283 285 286 286 287 289 290 290 290 290 290 290 289 288 288 289 289 288 286 284 282 282 282 282 280
270 274 272 272 273 274 275 275 276 275 274 273 274 275 277 279 280 282 283 283 283 285 286 286 287 288 289 288 287 287 288 288 288 290 290 289 288 285 283 282 282 281 279
271 274 274 274 275 275 273 272 272 272 273 275 274 275 276 277 278 280 281 280 282 283 285 285 286 287 288 287 286 287 288 288 287 287 288 288 288 287 284 282 281 282 280
270 272 273 273 275 274 273 272 272 272 272 274 276 276 275 276 276 277 278 279 282 283 285 286 286 287 287 287 287 287 288 286 286 286 286 286 287 286 284 281 281 280 279
268 269 271 272 274 275 273 271 270 271 273 273 273 273 274 275 274 275 276 278 280 282 283 285 286 286 286 287 288 288 287 286 286 286 286 284 284 285 284 282 281 280 278
268 267 269 271 271 273 273 274 273 273 272 272 273 273 274 274 273 273 275 278 280 281 282 283 284 283 284 285 286 287 287 286 287 287 287 285 284 285 284 283 281 281 279
268 267 268 268 269 270 270 271 271 272 272 274 275 275 276 276 275 275 275 276 278 280 282 283 283 283 283 285 285 285 286 286 286 288 288 286 284 284 283 282 281 280 279
267 268 266 265 266 267 267 269 270 271 273 275 276 277 276 276 277 276 274 275 277 279 280 282 283 283 284 285 285 285 286 287 287 288 287 286 283 282 282 281 280 278 278
Height
5889 5889 5889 5888 5888 5887 5887 5886 5885 5884 5883 5882 5881 5880 5878 5877 5877 5876 5875 5875 5874 5874 5873 5873 5872 5871 5871 5870 5869 5869 5868 5868 5867 5866 5865 5864 5862 5861 5860 5859 5858 5857 5856
5887 5887 5887 5887 5886 5885 5885 5884 5883 5882 5881 5880 5879 5878 5877 5876 5875 5874 5874 5873 5872 5872 5872 5871 5870 5870 5869 5868 5868 5867 5866 5866 5865 5864 5863 5862 5861 5860 5858 5857 5856 5855 5854
5885 5885 5885 5885 5884 5883 5883 5882 5881 5880 5879 5878 5877 5876 5875 5874 5873 5872 5871 5871 5870 5870 5869 5869 5869 5868 5868 5867 5866 5865 5864 5864 5863 5862 5861 5859 5859 5857 5856 5855 5853 5852 5851
5882 5882 5881 5881 5881 5881 5880 5879 5879 5878 5877 5876 5875 5874 5873 5872 5871 5870 5869 5868 5868 5867 5867 5867 5866 5866 5865 5864 5864 5863 5862 5861 5860 5859 5858 5856 5855 5855 5854 5852 5851 5849 5848
5879 5878 5878 5879 5878 5878 5878 5877 5876 5875 5874 5873 5872 5871 5870 5869 5868 5867 5867 5866 5866 5865 5865 5864 5863 5863 5862 5861 5861 5860 5859 5858 5857 5856 5854 5853 5852 5851 5850 5849 5848 5846 5845
5876 5876 5876 5876 5875 5875 5875 5874 5873 5872 5871 5870 5869 5868 5867 5866 5865 5864 5864 5864 5863 5863 5862 5861 5861 5860 5859 5858 5858 5857 5856 5855 5853 5852 5851 5850 5849 5847 5846 5845 5844 5843 5841
5873 5873 5873 5872 5872 5872 5871 5870 5869 5868 5868 5867 5866 5865 5864 5863 5862 5862 5861 5861 5860 5860 5859 5858 5858 5857 5856 5854 5854 5853 5852 5851 5850 5848 5847 5846 5845 5843 5842 5841 5840 5839 5837
5870 5870 5869 5869 5869 5868 5867 5867 5865 5864 5864 5863 5862 5862 5861 5860 5859 5859 5858 5857 5857 5856 5855 5855 5854 5853 5852 5851 5850 5849 5847 5846 5845 5844 5843 5842 5840 5839 5838 5837 5836 5835 5834
5866 5866 5866 5866 5865 5864 5864 5863 5861 5861 5860 5859 5858 5857 5857 5856 5855 5855 5854 5853 5852 5852 5851 5850 5849 5848 5847 5846 5845 5844 5843 5841 5840 5839 5838 5837 5836 5835 5834 5832 5831 5830 5829
5861 5862 5862 5861 5861 5860 5860 5859 5858 5857 5856 5855 5854 5853 5852 5852 5851 5850 5849 5848 5847 5846 5846 5845 5844 5843 5842 5841 5840 5839 5837 5836 5835 5834 5833 5832 5831 5829 5828 5827 5826 5825 5824
5857 5857 5857 5857 5857 5856 5855 5854 5854 5853 5852 5851 5850 5849 5848 5847 5847 5846 5845 5843 5841 5841 5840 5839 5838 5837 5836 5835 5834 5833 5832 5831 5830 5829 5828 5826 5825 5824 5823 5822 5821 5820 5819
5853 5853 5853 5852 5852 5852 5851 5850 5849 5848 5848 5847 5846 5845 5844 5843 5842 5841 5840 5839 5838 5837 5836 5834 5833 5832 5831 5830 5829 5828 5827 5826 5824 5823 5822 5821 5820 5819 5818 5817 5816 5815 5814
5846 5847 5847 5847 5847 5847 5846 5845 5844 5843 5843 5842 5841 5840 5839 5838 5837 5836 5835 5834 5833 5832 5831 5829 5828 5826 5825 5824 5823 5822 5821 5820 5819 5818 5816 5815 5814 5813 5812 5811 5810 5809 5808
5840 5841 5841 5841 5842 5841 5841 5840 5839 5838 5838 5837 5837 5836 5835 5833 5832 5831 5830 5829 5828 5827 5825 5824 5822 5821 5820 5819 5818 5816 5815 5814 5813 5812 5811 5810 5809 5808 5807 5805 5804 5803 5803
5834 5835 5835 5835 5835 5835 5835 5834 5834 5834 5833 5832 5832 5831 5830 5829 5828 5827 5826 5824 5823 5822 5820 5819 5817 5816 5814 5813 5812 5810 5809 5808 5807 5806 5805 5804 5803 5802 5801 5800 5799 5798 5797
5829 5829 5829 5829 5829 5829 5829 5829 5829 5828 5828 5827 5827 5826 5825 5824 5823 5822 5821 5820 5818 5816 5815 5814 5812 5811 5809 5807 5806 5805 5804 5802 5801 5800 5799 5798 5797 5796 5795 5794 5793 5792 5791
5824 5824 5824 5824 5825 5824 5824 5824 5823 5823 5822 5822 5821 5821 5820 5819 5818 5817 5816 5814 5813 5811 5810 5808 5807 5805 5803 5802 5801 5799 5798 5797 5796 5794 5793 5792 5791 5790 5789 5788 5787 5786 5785
5819 5819 5819 5819 5819 5819 5818 5818 5817 5817 5816 5816 5815 5815 5814 5814 5813 5812 5810 5809 5807 5805 5804 5803 5801 5800 5798 5796 5795 5793 5792 5791 5789 5788 5787 5785 5784 5783 5782 5781 5780 5779 5778
5812 5812 5812 5812 5812 5812 5811 5811 5810 5810 5809 5809 5809 5808 5808 5807 5806 5805 5804 5803 5801 5799 5798 5796 5795 5793 5792 5790 5788 5787 5786 5784 5783 5781 5780 5778 5777 5776 5775 5775 5774 5773 5772
5804 5804 5804 5804 5804 5804 5804 5803 5803 5802 5802 5801 5801 5801 5800 5800 5799 5798 5797 5795 5794 5793 5791 5789 5788 5787 5785 5783 5781 5780 5779 5777 5776 5774 5773 5771 5770 5769 5768 5767 5766 5766 5765
5797 5797 5797 5797 5797 5797 5796 5796 5795 5794 5794 5794 5794 5793 5793 5792 5791 5790 5789 5788 5787 5785 5784 5782 5781 5779 5778 5776 5774 5772 5771 5769 5768 5767 5765 5764 5763 5761 5760 5759 5759 5758 5757
5788 5789 5789 5789 5789 5789 5788 5788 5787 5787 5786 5786 5786 5785 5785 5784 5783 5783 5782 5780 5779 5778 5776 5775 5773 5772 5770 5768 5766 5765 5763 5761 5760 5759 5757 5756 5755 5754 5752 5751 5750 5750 5749
5780 5780 5780 5780 5780 5780 5780 5779 5779 5778 5778 5777 5777 5777 5776 5776 5775 5774 5773 5772 5771 5770 5768 5767 5765 5764 5762 5760 5759 5757 5755 5753 5752 5750 5749 5747 5746 5745 5744 5743 5742 5741 5740
5771 5771 5770 5771 5771 5771 5771 5770 5770 5770 5769 5769 5768 5768 5767 5766 5766 5765 5764 5763 5762 5761 5760 5758 5757 5756 5754 5753 5751 5749 5747 5745 5744 5742 5740 5739 5737 5736 5735 5734 5733 5732 5731
5760 5760 5760 5760 5761 5761 5762 5762 5762 5761 5761 5761 5760 5759 5758 5757 5756 5755 5755 5754 5753 5752 5751 5750 5748 5747 5746 5744 5742 5740 5738 5736 5735 5733 5731 5729 5728 5727 5726 5725 5724 5723 5723
5750 5749 5749 5749 5750 5751 5752 5752 5752 5752 5752 5751 5751 5750 5749 5748 5747 5746 5745 5744 5743 5742 5741 5740 5739 5737 5736 5734 5733 5731 5729 5727 5725 5723 5721 5720 5719 5718 5717 5716 5715 5714 5714